| time (UTC) | temp F | wind direction | speed knots | gust knots | rain 1hr in | rain 24hr in | rain mn in | humidity % | barometer mb |
| 20260504050003 | 41 | 223 | 2.6 | 4.3 | 0.01 | 0.03 | 0.01 | 92 | 1006.9 |
| 20260504045003 | 41 | 222 | 2.6 | 5.2 | 0.01 | 0.03 | 0.01 | 91 | 1006.8 |
| 20260504044003 | 41 | 223 | 2.6 | 4.3 | 0.01 | 0.03 | 0.01 | 91 | 1007.0 |
| 20260504043003 | 41 | 218 | 2.6 | 7.0 | 0.02 | 0.03 | 0.01 | 90 | 1007.1 |
| 20260504042003 | 41 | 233 | 2.6 | 4.3 | 0.02 | 0.03 | 0.01 | 90 | 1007.0 |
| 20260504041003 | 40 | 230 | 2.6 | 5.2 | 0.02 | 0.03 | 0.01 | 90 | 1007.1 |
| 20260504040003 | 40 | 230 | 2.6 | 7.0 | 0.01 | 0.02 | 0.00 | 89 | 1007.2 |
| 20260504035003 | 41 | 228 | 2.6 | 5.2 | 0.02 | 0.02 | 0.02 | 88 | 1007.2 |
| 20260504034003 | 41 | 231 | 4.3 | 9.6 | 0.02 | 0.02 | 0.02 | 88 | 1007.4 |
| 20260504033003 | 41 | 229 | 3.5 | 7.0 | 0.01 | 0.01 | 0.01 | 87 | 1007.4 |
| 20260504032003 | 41 | 227 | 2.6 | 6.1 | 0.01 | 0.01 | 0.01 | 86 | 1007.4 |
| 20260504031003 | 41 | 233 | 3.5 | 7.8 | 0.01 | 0.01 | 0.01 | 85 | 1007.5 |
| 20260504030003 | 41 | 227 | 3.5 | 7.0 | 0.01 | 0.01 | 0.01 | 83 | 1007.7 |
| 20260504025003 | 42 | 222 | 3.5 | 7.8 | 0.00 | 0.00 | 0.00 | 81 | 1007.7 |
| 20260504024003 | 42 | 222 | 3.5 | 8.7 | 0.00 | 0.00 | 0.00 | 79 | 1007.8 |
| 20260504023003 | 43 | 225 | 2.6 | 7.8 | 0.00 | 0.00 | 0.00 | 73 | 1007.8 |
| 20260504022003 | 44 | 226 | 4.3 | 7.8 | 0.00 | 0.00 | 0.00 | 67 | 1007.8 |
| 20260504021003 | 44 | 228 | 4.3 | 11.3 | 0.00 | 0.00 | 0.00 | 65 | 1007.8 |
| 20260504020024 | 45 | 223 | 3.5 | 7.0 | 0.00 | 0.00 | 0.00 | 61 | 1007.8 |
| 20260504015003 | 45 | 224 | 2.6 | 7.8 | 0.00 | 0.00 | 0.00 | 59 | 1007.7 |
| 20260504014003 | 45 | 225 | 2.6 | 7.8 | 0.00 | 0.00 | 0.00 | 58 | 1007.7 |
| 20260504013003 | 45 | 225 | 4.3 | 12.2 | 0.00 | 0.00 | 0.00 | 57 | 1007.6 |
| 20260504012003 | 45 | 223 | 1.7 | 4.3 | 0.00 | 0.00 | 0.00 | 56 | 1007.6 |
| 20260504011003 | 45 | 259 | 1.7 | 5.2 | 0.00 | 0.00 | 0.00 | 56 | 1007.6 |
| 20260504010003 | 45 | 219 | 3.5 | 7.8 | 0.00 | 0.00 | 0.00 | 56 | 1007.6 |
| 20260504005004 | 45 | 233 | 3.5 | 10.4 | 0.00 | 0.00 | 0.00 | 53 | 1007.7 |
| 20260504004003 | 45 | 224 | 2.6 | 7.0 | 0.00 | 0.00 | 0.00 | 49 | 1007.6 |
| 20260504003003 | 45 | 223 | 2.6 | 5.2 | 0.00 | 0.00 | 0.00 | 47 | 1007.5 |
| 20260504002003 | 45 | 221 | 2.6 | 6.1 | 0.00 | 0.00 | 0.00 | 47 | 1007.5 |
| 20260504001024 | 45 | 222 | 2.6 | 4.3 | 0.00 | 0.00 | 0.00 | 48 | 1007.5 |
| 20260504000003 | 45 | 220 | 2.6 | 6.1 | 0.00 | 0.00 | 0.00 | 46 | 1007.4 |
| 20260503235003 | 45 | 226 | 3.5 | 12.2 | 0.00 | 0.00 | 0.00 | 46 | 1007.5 |
| 20260503234024 | 45 | 225 | 2.6 | 5.2 | 0.00 | 0.00 | 0.00 | 44 | 1007.3 |
| 20260503233003 | 46 | 250 | 1.7 | 4.3 | 0.00 | 0.00 | 0.00 | 43 | 1007.4 |
| 20260503232003 | 47 | 270 | 0.9 | 3.5 | 0.00 | 0.00 | 0.00 | 41 | 1007.3 |
| 20260503231003 | 47 | 249 | 1.7 | 7.0 | 0.00 | 0.00 | 0.00 | 42 | 1007.1 |
| 20260503230003 | 48 | 287 | 1.7 | 4.3 | 0.00 | 0.00 | 0.00 | 40 | 1007.0 |
| 20260503225003 | 47 | 232 | 2.6 | 8.7 | 0.00 | 0.00 | 0.00 | 42 | 1007.0 |
| 20260503224003 | 48 | 169 | 1.7 | 5.2 | 0.00 | 0.00 | 0.00 | 40 | 1007.0 |
| 20260503223024 | 48 | 308 | 2.6 | 7.8 | 0.00 | 0.00 | 0.00 | 39 | 1006.9 |
| 20260503222003 | 48 | 264 | 3.5 | 7.8 | 0.00 | 0.00 | 0.00 | 37 | 1006.9 |
| 20260503221003 | 48 | 277 | 2.6 | 7.0 | 0.00 | 0.00 | 0.00 | 35 | 1007.0 |
| 20260503220003 | 48 | 235 | 4.3 | 13.9 | 0.00 | 0.00 | 0.00 | 36 | 1006.9 |
| 20260503215003 | 48 | 237 | 4.3 | 10.4 | 0.00 | 0.00 | 0.00 | 37 | 1006.9 |
| 20260503214003 | 48 | 245 | 3.5 | 7.8 | 0.00 | 0.00 | 0.00 | 36 | 1006.8 |
| 20260503213003 | 48 | 275 | 3.5 | 11.3 | 0.00 | 0.00 | 0.00 | 35 | 1006.8 |
| 20260503212024 | 49 | 250 | 4.3 | 10.4 | 0.00 | 0.00 | 0.00 | 35 | 1006.7 |
| 20260503211003 | 48 | 235 | 4.3 | 12.2 | 0.00 | 0.00 | 0.00 | 38 | 1006.5 |
| 20260503210003 | 49 | 234 | 5.2 | 11.3 | 0.00 | 0.00 | 0.00 | 37 | 1006.5 |
| 20260503205003 | 49 | 240 | 3.5 | 7.8 | 0.00 | 0.00 | 0.00 | 39 | 1006.5 |
| 20260503204003 | 48 | 283 | 2.6 | 8.7 | 0.00 | 0.00 | 0.00 | 39 | 1006.5 |
| 20260503203024 | 49 | 217 | 3.5 | 8.7 | 0.00 | 0.00 | 0.00 | 39 | 1006.6 |
| 20260503202003 | 48 | 289 | 3.5 | 8.7 | 0.00 | 0.00 | 0.00 | 38 | 1006.5 |
| 20260503201003 | 48 | 34 | 2.6 | 8.7 | 0.00 | 0.00 | 0.00 | 44 | 1006.7 |
| 20260503200003 | 48 | 241 | 3.5 | 8.7 | 0.00 | 0.00 | 0.00 | 43 | 1006.7 |
| 20260503195003 | 48 | 230 | 4.3 | 13.0 | 0.00 | 0.00 | 0.00 | 41 | 1006.9 |
| 20260503194003 | 47 | 310 | 2.6 | 7.0 | 0.00 | 0.00 | 0.00 | 42 | 1007.2 |
| 20260503193003 | 46 | 327 | 2.6 | 9.6 | 0.00 | 0.00 | 0.00 | 45 | 1007.3 |
| 20260503192003 | 46 | 300 | 2.6 | 7.0 | 0.00 | 0.00 | 0.00 | 45 | 1007.5 |
| 20260503191003 | 46 | 234 | 4.3 | 8.7 | 0.00 | 0.00 | 0.00 | 45 | 1007.6 |
| 20260503190024 | 46 | 236 | 3.5 | 6.1 | 0.00 | 0.00 | 0.00 | 47 | 1007.8 |
| 20260503185024 | 46 | 249 | 3.5 | 8.7 | 0.00 | 0.00 | 0.00 | 47 | 1007.7 |
| 20260503184003 | 46 | 228 | 2.6 | 7.0 | 0.00 | 0.00 | 0.00 | 45 | 1007.8 |
| 20260503183003 | 46 | 253 | 3.5 | 10.4 | 0.00 | 0.00 | 0.00 | 47 | 1007.8 |
| 20260503182024 | 45 | 257 | 2.6 | 8.7 | 0.00 | 0.00 | 0.00 | 46 | 1008.0 |
| 20260503181003 | 45 | 265 | 3.5 | 8.7 | 0.00 | 0.00 | 0.00 | 46 | 1008.0 |
| 20260503180003 | 45 | 234 | 2.6 | 7.8 | 0.00 | 0.00 | 0.00 | 46 | 1008.0 |
| 20260503175003 | 45 | 239 | 2.6 | 12.2 | 0.00 | 0.00 | 0.00 | 46 | 1007.9 |
| 20260503174003 | 45 | 300 | 3.5 | 7.8 | 0.00 | 0.00 | 0.00 | 46 | 1007.9 |
| 20260503173003 | 45 | 231 | 3.5 | 7.8 | 0.00 | 0.00 | 0.00 | 46 | 1008.0 |
| 20260503172024 | 44 | 342 | 2.6 | 8.7 | 0.00 | 0.00 | 0.00 | 52 | 1008.0 |
| 20260503171003 | 44 | 12 | 2.6 | 8.7 | 0.00 | 0.00 | 0.00 | 52 | 1008.0 |
| 20260503151003 | 42 | 245 | 2.6 | 7.0 | 0.00 | 0.01 | 0.00 | 58 | 1009.0 |
| 20260503131003 | 39 | 239 | 1.7 | 3.5 | 0.00 | 0.01 | 0.00 | 72 | 1009.5 |
| 20260503081003 | 35 | 0 | 0.0 | 0.0 | 0.00 | 0.02 | 0.00 | 88 | 1009.5 |